EW1107 Weather Reports


time (UTC)temp
F
wind
direction
speed
knots
gust
knots
rain 1hr
in
rain 24hr
in
rain mn
in
humidity
%
barometer
mb
20260905194555 55 248 7.8 20.0 0.01 0.34 0.19 92 1015.2
20260905194057 55 261 4.3 13.0 0.02 0.34 0.19 92 1015.2
20260905193556 55 226 3.5 13.0 0.03 0.34 0.19 91 1015.3
20260905193054 55 268 4.3 12.2 0.03 0.34 0.19 91 1015.2
20260905192554 55 265 3.5 17.4 0.03 0.34 0.19 91 1015.2
20260905192054 55 242 7.8 15.6 0.03 0.34 0.19 91 1015.1
20260905191557 55 285 2.6 14.8 0.03 0.34 0.19 91 1014.9
20260905191053 55 253 3.5 14.8 0.03 0.34 0.19 90 1014.9
20260905190553 55 217 5.2 13.0 0.03 0.34 0.19 90 1014.9
20260905190105 56 260 2.6 13.0 0.03 0.34 0.19 90 1015.0
20260905185551 56 288 7.0 20.0 0.02 0.33 0.18 89 1015.1
20260905185049 56 271 7.0 27.8 0.02 0.33 0.18 89 1015.3
20260905184605 56 232 11.3 27.8 0.02 0.32 0.17 87 1015.3
20260905184049 57 300 9.6 34.8 0.01 0.31 0.17 87 1015.4
20260905183549 57 275 20.9 35.6 0.00 0.31 0.16 86 1015.4
20260905183048 57 275 13.9 55.6 0.00 0.31 0.16 87 1015.4
20260905182547 57 290 21.7 55.6 0.00 0.31 0.16 88 1015.2
20260905181545 57 225 5.2 9.6 0.01 0.31 0.16 92 1015.0
20260905181044 57 227 3.5 9.6 0.01 0.31 0.16 92 1014.5
20260905180544 57 210 1.7 7.8 0.01 0.31 0.16 92 1014.6
20260905180044 57 219 3.5 7.8 0.01 0.31 0.16 92 1014.6
20260905175546 57 232 1.7 9.6 0.01 0.31 0.16 92 1014.7
20260905175044 57 265 2.6 13.0 0.01 0.31 0.16 91 1014.6
20260905174550 57 272 4.3 13.9 0.01 0.31 0.16 91 1014.5
20260905174042 57 258 5.2 24.3 0.01 0.31 0.16 91 1014.7
20260905173541 57 275 5.2 26.1 0.01 0.31 0.16 91 1014.6
20260905173041 57 279 9.6 27.8 0.01 0.31 0.16 91 1014.7
20260905172540 57 267 13.0 27.8 0.01 0.31 0.16 91 1014.6
20260905172039 57 285 11.3 27.8 0.01 0.30 0.15 91 1014.7
20260905171539 58 234 3.5 9.6 0.02 0.30 0.15 91 1014.5
20260905171038 58 233 0.9 3.5 0.06 0.30 0.15 91 1014.2
20260905170540 58 240 0.0 0.0 0.12 0.30 0.15 91 1014.1
20260905170040 58 277 0.0 3.5 0.13 0.30 0.15 91 1014.1
20260905165537 58 277 0.0 4.3 0.13 0.30 0.15 90 1014.0
20260905165036 58 290 0.0 4.3 0.13 0.30 0.15 91 1014.0
20260905164536 58 279 0.0 2.6 0.13 0.30 0.15 90 1014.0
20260905164035 58 279 0.0 3.5 0.13 0.30 0.15 90 1014.1
20260905163536 58 279 0.0 9.6 0.13 0.30 0.15 90 1014.1
20260905163036 58 282 2.6 13.9 0.13 0.30 0.15 89 1014.1
20260905162535 59 292 4.3 14.8 0.13 0.30 0.15 89 1014.2
20260905162035 59 259 7.8 26.9 0.13 0.28 0.14 88 1014.7
20260905161031 61 245 9.6 16.5 0.07 0.24 0.09 84 1014.7
20260905160530 62 291 5.2 10.4 0.02 0.18 0.03 82 1014.1
20260905160031 62 240 0.0 7.0 0.00 0.17 0.02 80 1013.5
20260905155531 63 236 0.9 7.0 0.00 0.17 0.02 78 1013.5
20260905155029 63 229 0.0 3.5 0.00 0.17 0.02 77 1013.4
20260905154529 63 294 0.0 6.1 0.00 0.17 0.02 77 1013.5
20260905154030 63 294 0.9 6.1 0.00 0.17 0.02 77 1013.3
20260905153529 63 294 0.0 6.1 0.00 0.17 0.02 79 1013.3
20260905153029 62 339 0.9 9.6 0.00 0.17 0.02 79 1013.5
20260905152529 62 295 0.0 9.6 0.00 0.17 0.02 78 1013.5
20260905152028 63 298 3.5 9.6 0.00 0.17 0.02 76 1013.4
20260905151529 63 296 3.5 9.6 0.00 0.17 0.02 75 1013.5
20260905151036 63 294 2.6 11.3 0.00 0.17 0.02 73 1013.5
20260905150528 64 16 3.5 15.6 0.00 0.17 0.02 72 1013.5
20260905150028 64 286 6.1 15.6 0.00 0.17 0.02 71 1013.3
20260905145528 65 360 7.8 14.8 0.00 0.17 0.02 70 1013.3
20260905145028 65 28 3.5 13.0 0.00 0.17 0.02 71 1013.3
20260905144528 63 298 6.1 13.0 0.00 0.17 0.02 74 1013.3
20260905144027 62 351 5.2 19.1 0.00 0.17 0.02 74 1013.3
20260905143527 62 340 7.0 19.1 0.00 0.17 0.02 73 1013.4
20260905143030 62 293 8.7 20.0 0.00 0.17 0.02 74 1013.4
20260905142526 62 312 11.3 30.4 0.00 0.17 0.02 73 1013.4
20260905142028 62 360 11.3 40.8 0.00 0.17 0.02 72 1013.6
20260905141529 64 269 18.2 40.8 0.00 0.17 0.02 67 1013.6
20260905141025 67 320 14.8 39.1 0.00 0.17 0.02 61 1013.5
20260905140525 69 293 12.2 22.6 0.00 0.17 0.02 58 1013.0
20260905140025 70 285 6.1 19.1 0.00 0.17 0.02 58 1013.0
20260905135525 70 269 9.6 40.8 0.00 0.17 0.02 57 1012.9
20260905135024 70 300 19.1 40.8 0.00 0.17 0.02 57 1012.9
20260905134526 70 240 13.0 26.9 0.00 0.17 0.02 57 1012.9
20260905134024 70 261 10.4 27.8 0.00 0.17 0.02 59 1012.9
20260905133524 69 278 17.4 27.8 0.00 0.17 0.02 58 1012.9
20260905133024 70 303 12.2 33.0 0.00 0.17 0.02 58 1012.9
20260905132523 70 217 13.9 33.0 0.00 0.17 0.02 58 1013.0
20260905132022 69 236 14.8 26.1 0.00 0.17 0.02 57 1013.0
20260905131541 69 298 11.3 26.1 0.00 0.17 0.02 58 1013.1
20260905131121 69 259 14.8 34.8 0.00 0.17 0.02 58 1013.0
20260905130522 69 291 19.1 34.8 0.00 0.17 0.02 57 1013.0
20260905130128 69 259 14.8 33.9 0.00 0.17 0.02 57 1013.0
20260905125520 69 177 12.2 33.9 0.00 0.17 0.02 58 1013.0
20260905125021 68 248 11.3 33.9 0.00 0.17 0.02 58 1013.0
20260905124536 68 286 13.9 34.8 0.00 0.17 0.02 56 1013.1
20260905124020 69 289 18.2 40.0 0.00 0.17 0.02 54 1013.0
20260905123520 69 338 13.0 40.0 0.00 0.17 0.02 56 1013.0
20260905123020 69 273 8.7 29.5 0.00 0.17 0.02 58 1013.1
20260905122520 67 323 13.9 30.4 0.00 0.17 0.02 59 1013.2
20260905122020 67 303 14.8 32.2 0.00 0.17 0.02 58 1013.2
20260905121524 68 292 11.3 37.4 0.00 0.17 0.02 57 1013.2
20260905121021 69 225 14.8 32.2 0.00 0.17 0.02 56 1013.2
20260905120522 68 284 13.9 27.8 0.00 0.17 0.02 58 1013.2
20260905120019 67 298 12.2 36.5 0.00 0.17 0.02 59 1013.3
20260905115517 68 312 13.9 42.6 0.00 0.17 0.02 56 1013.3
20260905115020 69 215 13.9 42.6 0.00 0.17 0.02 56 1013.2
20260905114534 68 273 11.3 35.6 0.00 0.17 0.02 59 1013.2
20260905114016 68 261 13.0 35.6 0.00 0.17 0.02 59 1013.1
20260905113515 68 271 16.5 36.5 0.00 0.17 0.02 59 1013.2
20260905113014 69 297 14.8 30.4 0.00 0.17 0.02 58 1013.2
20260905112515 68 303 15.6 40.0 0.00 0.17 0.02 58 1013.2
20260905112016 68 244 15.6 40.0 0.00 0.17 0.02 57 1013.1
20260905111516 68 238 17.4 38.2 0.00 0.17 0.02 58 1013.1
20260905111013 68 315 19.1 43.4 0.00 0.17 0.02 57 1013.1
20260905110616 68 230 13.9 43.4 0.00 0.17 0.02 58 1013.0
20260905110012 68 288 20.0 43.4 0.00 0.17 0.02 60 1013.1
20260905105511 68 301 13.0 45.2 0.00 0.17 0.02 60 1013.1
20260905105011 67 239 19.1 45.2 0.00 0.17 0.02 61 1013.0
20260905104511 68 326 17.4 40.8 0.00 0.17 0.02 58 1013.1
20260905104010 67 275 20.0 40.8 0.00 0.17 0.02 58 1013.0
20260905103512 68 192 15.6 40.0 0.00 0.17 0.02 59 1013.0
20260905103023 67 300 21.7 40.0 0.00 0.17 0.02 59 1013.0
20260905102509 68 319 12.2 38.2 0.00 0.17 0.02 61 1012.9
20260905102008 67 303 16.5 36.5 0.00 0.17 0.02 62 1012.9
20260905101515 66 289 12.2 42.6 0.00 0.17 0.02 64 1013.0
20260905101006 67 296 23.5 42.6 0.00 0.17 0.02 63 1012.8
20260905100506 66 296 16.5 29.5 0.00 0.17 0.02 67 1012.8
20260905100006 66 236 14.8 30.4 0.00 0.17 0.02 66 1012.7
20260905095505 66 269 15.6 36.5 0.00 0.17 0.02 66 1012.7
20260905095004 66 251 15.6 37.4 0.00 0.17 0.02 66 1012.7
20260905094504 67 239 10.4 33.0 0.00 0.17 0.02 66 1012.7
20260905094004 68 265 13.0 29.5 0.00 0.17 0.02 66 1012.5
20260905093501 66 294 14.8 29.5 0.00 0.17 0.02 67 1012.5
20260905093102 67 245 13.0 29.5 0.00 0.17 0.02 68 1012.6
20260905092603 66 306 13.9 29.5 0.00 0.17 0.02 69 1012.6
20260905092058 66 275 12.2 35.6 0.00 0.17 0.02 69 1012.5
20260905091609 66 247 14.8 33.0 0.00 0.17 0.02 70 1012.6
20260905091056 65 351 13.9 37.4 0.00 0.17 0.02 71 1012.6
20260905090556 65 257 12.2 37.4 0.00 0.17 0.02 70 1012.4
20260905090155 65 205 12.2 28.7 0.00 0.17 0.02 71 1012.3
20260905085554 65 251 15.6 29.5 0.00 0.17 0.02 70 1012.4
20260905085052 64 277 7.0 28.7 0.00 0.17 0.02 74 1012.3
20260905084605 64 252 13.0 27.8 0.00 0.17 0.02 72 1012.3
20260905084050 64 272 14.8 36.5 0.00 0.17 0.02 71 1012.2
20260905083550 65 277 17.4 36.5 0.00 0.17 0.02 71 1012.2
20260905083049 65 283 9.6 32.2 0.00 0.17 0.02 73 1012.1
20260905082549 64 264 17.4 33.0 0.00 0.17 0.02 73 1012.1
20260905082048 64 293 15.6 33.0 0.00 0.17 0.02 74 1012.0
20260905081547 64 307 10.4 33.0 0.00 0.17 0.02 76 1012.0
20260905081046 63 281 14.8 33.0 0.00 0.17 0.02 76 1012.0
20260905080546 63 282 12.2 31.3 0.00 0.17 0.02 77 1012.0
20260905080045 63 267 10.4 27.8 0.00 0.17 0.02 78 1012.1
20260905075547 63 235 12.2 27.8 0.00 0.17 0.02 77 1012.1
20260905075043 64 263 14.8 26.9 0.00 0.17 0.02 77 1012.0
20260905074544 64 180 10.4 26.1 0.00 0.17 0.02 77 1011.9
20260905074044 64 244 10.4 25.2 0.00 0.17 0.02 78 1011.9
20260905073542 63 284 8.7 26.1 0.00 0.17 0.02 79 1011.7
20260905073042 64 300 15.6 25.2 0.00 0.17 0.02 78 1011.8
20260905072541 62 223 7.8 29.5 0.00 0.17 0.02 81 1011.8
20260905072040 62 253 12.2 26.1 0.00 0.17 0.02 80 1011.8
20260905071539 63 244 12.2 26.9 0.00 0.17 0.02 80 1011.7
20260905071037 63 213 13.9 27.8 0.00 0.17 0.02 80 1011.5
20260905070538 62 284 14.8 30.4 0.00 0.17 0.02 81 1011.6
20260905070036 62 203 15.6 35.6 0.00 0.17 0.02 81 1011.5
20260905065635 62 265 16.5 35.6 0.00 0.17 0.02 82 1011.5
20260905065136 62 256 13.0 32.2 0.00 0.17 0.02 82 1011.4
20260905064538 62 254 17.4 31.3 0.00 0.17 0.02 82 1011.2
20260905064035 62 281 6.1 31.3 0.00 0.17 0.02 83 1011.2
20260905063532 62 238 10.4 35.6 0.00 0.17 0.02 83 1011.1
20260905063032 61 302 17.4 35.6 0.00 0.17 0.02 83 1011.2
20260905062531 61 304 12.2 25.2 0.00 0.17 0.02 83 1011.1
20260905062032 61 288 13.0 25.2 0.00 0.17 0.02 84 1011.0
20260905061530 61 294 7.8 18.2 0.00 0.17 0.02 84 1011.0
20260905061030 61 281 9.6 32.2 0.00 0.17 0.02 84 1011.0
20260905060531 61 247 15.6 32.2 0.00 0.17 0.02 85 1011.0
20260905060032 61 293 6.1 23.5 0.00 0.17 0.02 85 1010.9
20260905055531 61 296 10.4 23.5 0.00 0.17 0.02 85 1010.8
20260905055026 61 257 7.8 21.7 0.00 0.17 0.02 86 1010.8
20260905054527 61 263 10.4 26.9 0.00 0.17 0.02 86 1010.7
20260905054025 61 219 5.2 25.2 0.00 0.17 0.02 87 1010.6
20260905053524 60 213 9.6 21.7 0.00 0.17 0.02 87 1010.6
20260905053024 61 217 10.4 29.5 0.00 0.17 0.02 87 1010.6
20260905052524 61 267 8.7 20.9 0.00 0.17 0.02 87 1010.7
20260905052022 61 276 5.2 21.7 0.00 0.17 0.02 87 1010.6
20260905051532 61 263 5.2 19.1 0.00 0.17 0.02 87 1010.4
20260905051019 61 254 7.8 19.1 0.00 0.17 0.02 87 1010.4
20260905050518 61 302 7.8 18.2 0.00 0.17 0.02 87 1010.3
20260905050017 61 286 8.7 18.2 0.00 0.17 0.02 87 1010.3
20260905045518 61 198 4.3 22.6 0.00 0.17 0.02 87 1010.2
20260905044515 61 255 12.2 20.0 0.00 0.17 0.02 87 1010.2
20260905044018 61 302 11.3 26.9 0.00 0.17 0.02 88 1010.0
20260905043513 61 254 7.8 26.9 0.00 0.17 0.02 88 1009.9
20260905043012 61 298 7.0 20.0 0.00 0.17 0.02 88 1009.8
20260905042511 61 290 10.4 20.0 0.00 0.17 0.02 88 1009.8
20260905042011 61 286 7.0 30.4 0.00 0.17 0.02 88 1009.8
20260905041512 61 276 12.2 30.4 0.00 0.17 0.02 88 1009.8
20260905041008 61 246 11.3 22.6 0.00 0.17 0.02 88 1009.8
20260905040507 61 241 8.7 27.8 0.00 0.17 0.02 88 1009.7
20260905040007 61 306 12.2 27.8 0.00 0.17 0.02 88 1009.5
20260905035507 61 305 10.4 20.9 0.00 0.17 0.02 88 1009.4
20260905035004 61 277 8.7 18.2 0.00 0.17 0.02 88 1009.5
20260905034505 61 296 9.6 17.4 0.00 0.17 0.02 88 1009.3
20260905034002 61 311 5.2 19.1 0.00 0.17 0.02 88 1009.1
20260905033502 61 221 8.7 23.5 0.00 0.17 0.02 88 1009.1
20260905033002 61 250 8.7 23.5 0.00 0.17 0.02 88 1009.1
20260905032502 61 254 7.0 21.7 0.00 0.17 0.02 88 1009.1
20260905032103 61 250 8.7 21.7 0.00 0.17 0.02 88 1009.2
20260905031601 61 305 9.6 29.5 0.00 0.17 0.02 88 1009.0
20260905031100 61 290 11.3 29.5 0.00 0.17 0.02 88 1008.9
20260905030557 61 269 11.3 25.2 0.00 0.17 0.02 89 1008.7
20260905030104 61 261 11.3 33.9 0.00 0.17 0.02 89 1008.5
20260905025557 61 261 9.6 33.9 0.00 0.17 0.02 89 1008.6
20260905025056 61 302 10.4 20.9 0.00 0.17 0.02 89 1008.5
20260905024057 61 259 7.8 21.7 0.00 0.17 0.02 89 1008.4
20260905023555 61 266 7.8 23.5 0.00 0.17 0.02 90 1008.4
20260905023057 61 275 10.4 23.5 0.00 0.17 0.02 90 1008.2
20260905022552 61 284 5.2 20.9 0.00 0.17 0.02 90 1008.2
20260905022052 61 271 10.4 21.7 0.00 0.17 0.02 91 1008.4
20260905021552 61 248 8.7 21.7 0.00 0.17 0.02 91 1008.3
20260905021051 61 236 7.8 25.2 0.00 0.17 0.02 91 1008.1
20260905020550 61 234 7.8 25.2 0.00 0.17 0.02 91 1008.1
20260905020052 61 266 6.1 24.3 0.00 0.17 0.02 91 1008.1
20260905015549 61 288 7.8 22.6 0.00 0.17 0.02 91 1008.1
20260905015048 61 294 10.4 22.6 0.00 0.17 0.02 91 1008.2
20260905014546 61 238 7.8 19.1 0.00 0.17 0.02 91 1008.2
20260905014049 61 207 10.4 23.5 0.00 0.17 0.02 92 1008.0
20260905013546 61 253 11.3 23.5 0.00 0.17 0.02 92 1007.9
20260905013050 61 254 8.7 23.5 0.00 0.17 0.02 92 1008.1
20260905012545 61 207 7.8 23.5 0.00 0.17 0.02 92 1007.9
20260905012045 61 222 6.1 24.3 0.00 0.17 0.02 92 1007.9
20260905011553 61 205 11.3 24.3 0.00 0.17 0.02 92 1008.0
20260905011048 61 284 8.7 22.6 0.00 0.17 0.02 92 1007.8
20260905010546 61 282 10.4 20.0 0.01 0.17 0.02 92 1007.9
20260905010044 61 321 7.8 25.2 0.01 0.17 0.02 92 1007.6
20260905005543 61 258 7.8 25.2 0.01 0.17 0.02 92 1007.4
20260905005041 61 300 7.8 21.7 0.01 0.17 0.02 91 1007.6
20260905004549 61 245 12.2 23.5 0.01 0.17 0.02 91 1007.9
20260905003538 61 265 7.8 27.8 0.01 0.17 0.02 91 1008.0
20260905003037 61 275 11.3 22.6 0.01 0.17 0.02 91 1007.9
20260905002536 61 269 12.2 21.7 0.01 0.17 0.02 91 1007.8
20260905002034 61 227 9.6 24.3 0.01 0.17 0.02 90 1007.3
20260905001533 61 238 12.2 24.3 0.01 0.17 0.02 90 1007.1
20260905001037 62 253 7.0 31.3 0.01 0.17 0.02 90 1006.8
20260905000532 62 281 10.4 31.3 0.00 0.16 0.01 89 1007.0
20260905000032 62 223 11.3 27.8 0.00 0.16 0.01 89 1006.7
20260904235531 62 220 9.6 24.3 0.00 0.16 0.01 89 1007.0
20260904235033 62 284 12.2 24.3 0.00 0.16 0.01 89 1007.0
20260904234539 62 252 10.4 26.1 0.00 0.16 0.01 89 1006.9
20260904234027 62 242 7.8 26.1 0.01 0.16 0.01 88 1006.6
20260904233527 62 343 11.3 26.1 0.01 0.16 0.01 88 1006.7
20260904233036 62 257 11.3 24.3 0.01 0.16 0.01 88 1006.7
20260904232526 62 247 9.6 25.2 0.01 0.16 0.01 88 1006.8
20260904232028 63 253 8.7 25.2 0.01 0.16 0.01 89 1006.6
20260904231523 63 299 10.4 23.5 0.01 0.16 0.01 89 1006.7
20260904231023 63 262 11.3 27.8 0.01 0.16 0.01 89 1006.5
20260904230522 63 234 13.9 27.8 0.01 0.16 0.01 89 1006.4
20260904230027 63 248 10.4 26.1 0.01 0.16 0.01 90 1006.3
20260904225525 64 265 8.7 23.5 0.01 0.16 0.01 90 1006.2
20260904225020 64 251 8.7 21.7 0.01 0.16 0.01 90 1006.0
20260904224526 64 280 7.0 22.6 0.01 0.16 0.01 90 1006.0
20260904224016 64 269 9.6 22.6 0.00 0.15 0.00 90 1005.7
20260904223515 64 231 9.6 23.5 0.00 0.15 0.00 91 1005.8
20260904223014 64 193 9.6 22.6 0.00 0.15 0.00 91 1005.9
20260904222511 65 299 7.8 22.6 0.00 0.15 0.00 92 1005.7
20260904222011 65 224 7.0 20.0 0.00 0.15 0.00 92 1005.5
20260904221509 65 248 9.6 26.1 0.00 0.15 0.00 92 1005.4
20260904221009 65 261 6.1 26.1 0.00 0.15 0.00 92 1004.9
20260904220508 65 236 8.7 20.0 0.00 0.15 0.00 93 1005.0
20260904220006 65 218 9.6 20.0 0.00 0.15 0.15 93 1005.1
20260904215507 65 257 7.0 20.9 0.00 0.15 0.15 93 1005.3
20260904215006 65 217 6.1 18.2 0.00 0.15 0.15 93 1005.4
20260904214510 64 221 4.3 15.6 0.00 0.15 0.15 93 1005.2
20260904214009 64 232 8.7 18.2 0.00 0.15 0.15 93 1005.3
20260904213606 64 223 7.0 20.0 0.00 0.15 0.15 93 1005.2
20260904213006 64 244 9.6 20.0 0.00 0.15 0.15 93 1004.9
20260904212504 64 196 3.5 19.1 0.00 0.15 0.15 93 1005.1
20260904212008 64 262 6.1 18.2 0.00 0.15 0.15 92 1005.3
20260904211503 64 221 7.8 19.1 0.00 0.15 0.15 92 1005.5
20260904211005 64 217 7.0 19.1 0.00 0.15 0.15 92 1005.6
20260904210504 64 220 5.2 10.4 0.00 0.15 0.15 92 1005.5
20260904210004 64 224 6.1 13.9 0.00 0.15 0.15 92 1005.6
20260904205503 64 238 5.2 11.3 0.00 0.15 0.15 92 1005.3
20260904205007 64 229 5.2 11.3 0.00 0.15 0.15 92 1005.2
20260904204502 64 225 2.6 13.0 0.00 0.15 0.15 92 1005.2
20260904204002 64 244 5.2 13.0 0.01 0.15 0.15 92 1005.1
20260904203502 64 251 4.3 16.5 0.01 0.15 0.15 91 1005.2
20260904203002 64 273 4.3 13.0 0.02 0.15 0.15 91 1005.2
20260904202502 64 236 3.5 18.2 0.04 0.15 0.15 92 1005.4
20260904202002 65 265 5.2 18.2 0.10 0.15 0.15 91 1005.4
20260904201501 65 310 7.0 18.2 0.13 0.15 0.15 91 1005.5
20260904201000 65 309 10.4 20.0 0.15 0.15 0.15 91 1005.8
20260904200501 65 298 10.4 20.0 0.15 0.15 0.15 91 1005.8
20260904195600 66 273 8.7 30.4 0.15 0.15 0.15 91 1005.6
20260904195502 66 286 7.8 30.4 0.15 0.15 0.15 91 1005.5
20260904195103 66 312 12.2 33.9 0.15 0.15 0.15 91 1005.6